Miscellaneous Local Product
Issued by NWS North Platte, NE

Home | Current Version | Previous Version | Text Only | Print | Product List | Glossary On
Versions: 1 2 3 4 5 6 7 8 9 10 11 12 13 14 15 16 17 18 19 20 21 22 23 24 25 26 27 28 29 30 31 32 33 34 35 36 37 38 39 40 41 42 43 44 45 46 47 48 49 50
243
AXUS43 KLBF 212210
MISLBF


WESTERN AND NORTH CENTRAL NEBRASKA HOURLY WEATHER ROUNDUP
NATIONAL WEATHER SERVICE NORTH PLATTE NE
500 PM CDT SAT OCT 21 2017

NOTE: "FAIR" INDICATES FEW OR NO CLOUDS BELOW 12,000 FEET WITH NO
SIGNIFICANT WEATHER AND/OR OBSTRUCTIONS TO VISIBILITY.

NOTE: STATIONS NOT REPORTING VARIABLES SUCH AS SKY/WEATHER OR
PRESSURE ARE PROVIDED BY RAWS AND APRS NETWORKS AND ARE NOT UNDER
NATIONAL WEATHER SERVICE QUALITY CONTROL.

...OBSERVATIONS IN AND NEAR THE EASTERN PANHANDLE OF NEBRASKA...

CITY           SKY/WX    TMP DP  RH WIND       PRES   REMARKS
PINE RIDGE     SUNNY     58  15  18 W21G35    29.90R
GORDON         FAIR      57  17  21 NW20G31   29.90R
CHADRON        SUNNY     60   9  13 W17G32    29.92R
ALLIANCE       MOSUNNY   56  15  20 W20G26    29.94R HAZE
SIDNEY         SUNNY     56  15  20 NW23G30   29.99R
CRESCENT LAKE    N/A     57  15  19 NW16G26     N/A
$$

...OBSERVATIONS IN NORTHERN NEBRASKA AND FAR SOUTHERN SOUTH DAKOTA...

CITY           SKY/WX    TMP DP  RH WIND       PRES   REMARKS
WINNER         FAIR      60  31  33 NW21G31   29.84R
VALENTINE      SUNNY     60  28  29 W17       29.87R
THEDFORD       SUNNY     60  27  28 W13G20    29.90R
AINSWORTH      MOSUNNY   57  30  35 NW17G23   29.88R
O`NEILL        MOSUNNY   55  39  54 NW14      29.87R
ORD            CLOUDY    58  36  43 NW20G26   29.89R
BROKEN BOW     SUNNY     57  36  45 NW15      29.90S
VALENTINE NWR    N/A     56  34  44 NW9G20      N/A
HALSEY           N/A     58  34  40 NW7G15      N/A
BUTTE            N/A     55  35  46 NW24G32     N/A
CHAMBERS         N/A     56  36  47 W6          N/A
EWING            N/A     54  39  56 NW12G18     N/A
$$

...OBSERVATIONS IN SOUTHWEST NEBRASKA AND FAR NORTHEAST COLORADO...

CITY           SKY/WX    TMP DP  RH WIND       PRES   REMARKS
WRAY           FAIR      61  14  16 NW23G30   29.98R
HOLYOKE        FAIR      61  14  16 NW14G28   29.97R
IMPERIAL       SUNNY     61  18  18 NW17G24   29.95R
OGALLALA       SUNNY     61  19  19 NW23      29.94R
NORTH PLATTE   SUNNY     61  26  26 NW21G30   29.93R
MCCOOK         SUNNY     63  27  25 N13G24    29.93R
LEXINGTON      SUNNY     59  36  42 NW12G20   29.93R
STAPLETON        N/A     59  28  30 W3G12       N/A
GOTHENBURG       N/A     57  32  39 NW10        N/A
CALLAWAY         N/A     57  38  49 NW13        N/A
$$

...OBSERVATIONS IN CENTRAL LINCOLN COUNTY AREA...

CITY           SKY/WX    TMP DP  RH WIND       PRES   REMARKS
N.P. AIRPORT   SUNNY     61  26  26 NW21G30   29.93R
N.P. DOWNTOWN    N/A     60  26  27 W6          N/A
N.P. SOUTHEAST   N/A     60  24  25 NW7G15      N/A
N.P. HILLCREST   N/A     60  25  26 NW20G28     N/A
$$

...SOME OBSERVATIONS FROM AROUND THE REGION...

CITY           SKY/WX    TMP DP  RH WIND       PRES   REMARKS
DENVER         MOSUNNY   53   6  15 NW16      30.05R
LIMON          SUNNY     53   5  14 NW25G35   30.03R
ASPEN          SUNNY     39  17  41 VRB3      30.19R
LARAMIE        PTSUNNY   38  11  32 W25G32    30.06R WCI  27
CASPER         MOSUNNY   50   8  18 W18G31    29.98R
CHEYENNE       MOSUNNY   46  13  26 W25G32    30.05R
SCOTTSBLUFF    MOSUNNY   57  11  16 W17G28    29.96R
GRAND ISLAND   MOSUNNY   55  39  54 NW20      29.91R
OMAHA          PTSUNNY   63  45  51 NW23      29.79R
SIOUX FALLS    CLOUDY    55  42  61 NW18G24   29.77R
PIERRE         PTSUNNY   58  35  42 NW18G29   29.78R
RAPID CITY     SUNNY     57  21  24 NW21G26   29.86R
BISMARCK       CLOUDY    51  37  58 NW14G26   29.69R
KANSAS CITY    CLOUDY    74  65  73 S15       29.80S
HILL CITY      CLOUDY    63  34  33 N14       29.95R
WICHITA        CLOUDY    63  59  87 E6        29.80R
DODGE CITY     CLOUDY    59  32  36 N24G33    29.94R
OKLAHOMA CITY  PTSUNNY   77  64  64 S17G23    29.80S
DALLAS         PTSUNNY   89  64  43 S20       29.80F HX  90
AMARILLO       SUNNY     63  33  32 N18       29.94R
$$




USA.gov is the U.S. government's official web portal to all federal, state and local government web resources and services.